COSMOS 2202

Satellite information

Favourite Embed

Satellite Type and Status

PAYLOADIN ORBIT

Key statistics

Satellite COSMOS 2202 at a glance.

Uptime

12211

Days in orbit

Revolutions

≈ 12.6

Per day

Orbit

LEO

Low Earth Orbit

Inclination

82.6

Latest

Satellite identification and parameters

Extended collection of information and parameters for COSMOS 2202.

Object identification

Identified? True

Debris? False

Object name: COSMOS 2202

International designator: 1992-042F

Object number (NORAD): 22039

Object ID (CCSDS): 22039

Country: COMMONWEALTH OF INDEPENDENT STATES (CIS)

Current information (Y/N): Y

RCS size: LARGE

Orbital parameters

Period: 114.045 minutes

Inclination: 82.5971 deg

SMA: 7790.129 km

Apoapsis: 1418.591 km

Periapsis: 1405.396 km

RAAN: 9.4729 deg

Eccentricy: 0.00084696

Argument of periapsis: 5.8867 deg

Mean anomaly: 116.0538 deg

Mean motion: 12.62658268 rev/day

Mean motion (dot): 0.00000042 rev/day2

B* drag term: 0.00017399793 1/REarth

Two-line elements (TLE)

Creation date: Dec. 17, 2025, 7:48 p.m.

Reference frame: TEME

Reference center: EARTH

Epoch: Dec. 17, 2025, 1:56 p.m. UTC

TLE line 0: 0 COSMOS 2202

TLE line 1: 1 22039U 92042F 25351.58104472 .00000042 00000-0 17400-3 0 9991

TLE line 2: 2 22039 82.5971 9.4729 0008470 5.8867 116.0538 12.62658268540485

Live tracking on map

Real-time ground track for satellite COSMOS 2202.

In-orbit conjunctions

There are no conjunctions computed for COSMOS 2202, at the moment. Check back to stay up to date, as we update our databases every day.

Go to all conjunctions

Associated space launch

Second generation store-dump military communications satellite

COSMOS 2202 was lifted into orbit during the mission ‘Tsiklon-3 | Strela-3 79 to 82’, on board a Tsiklon-3 space rocket.

The launch took place on July 13, 1992, 5:41 p.m. from 32/1.

For more information about the launch, click the button.

Launch to space Tsiklon-3 | Strela-3 79 to 82
Tsiklon-3 | Strela-3 79 to 82

Agency: N/A

Status: Launch Successful

Launch date: July 13, 1992, 5:41 p.m. UTC

Rocket: Tsiklon-3

Launch pad: 32/1

Location: Plesetsk Cosmodrome, Russian Federation

...

Latest news about this satellite

There are no fresh news available about this satellite. Check back as we update our databases every day.


Newsletter sign-up

Weekly statistics, charts and insights to help you stay on top of the space industry.